Dewpoint
11 12 13 13 14 15 15 14 15 15 15 15 14 13 13 13 13 13 13 13 13 12 12 12 12 12 12 12 12 12 13 13 13 13 14 15 15 15 15 15 15 15
10 11 12 13 14 15 15 15 15 15 15 15 15 14 14 14 14 13 12 13 13 12 12 11 12 12 11 12 12 12 13 13 14 14 15 14 14 14 14 14 14 14
9 10 11 12 13 14 15 14 14 15 15 15 14 14 14 14 14 14 13 13 13 13 12 12 12 12 12 12 13 13 13 13 14 14 14 13 14 14 14 14 14 14
10 8 9 11 13 14 14 14 14 14 15 14 14 14 14 14 14 14 14 14 14 13 13 14 14 13 13 14 14 14 14 13 13 13 13 12 13 13 13 13 14 14
9 8 8 10 12 13 14 14 14 14 14 14 14 14 14 14 14 14 14 14 14 14 14 15 15 14 14 15 15 14 14 13 13 13 12 12 12 12 12 13 13 14
8 7 7 8 10 12 13 13 13 13 14 14 14 14 14 14 14 14 14 14 14 14 15 15 16 15 14 14 15 14 14 14 14 14 14 14 14 14 13 13 13 14
8 6 6 7 8 9 11 12 12 12 13 13 13 13 14 14 14 14 14 13 14 14 14 14 14 14 14 14 15 15 15 15 15 15 15 15 15 15 15 15 15 15
10 7 6 6 6 8 9 10 10 11 11 11 12 13 13 13 14 14 14 14 14 14 14 14 14 13 14 14 15 15 15 15 15 16 16 16 16 16 16 16 16 15
12 10 8 7 7 7 7 9 9 9 8 9 10 11 12 12 13 14 14 14 13 13 13 14 15 15 15 15 15 15 16 16 16 16 16 16 16 15 16 16 16 16
13 11 10 8 7 7 6 7 7 7 7 8 8 10 11 11 12 13 13 13 13 13 14 15 15 15 16 16 16 15 15 15 15 15 16 16 15 15 16 17 17 17
13 12 11 9 8 7 7 7 7 7 6 7 7 8 9 10 10 11 12 13 12 12 13 14 15 16 16 16 16 16 15 15 15 15 15 15 15 16 16 17 16 16
13 12 12 11 9 8 7 7 6 6 6 7 6 7 7 8 9 10 11 11 11 11 12 13 15 16 17 17 16 16 16 15 14 15 15 15 15 16 16 15 15 15
14 13 13 12 12 11 10 8 7 6 7 7 7 7 7 7 8 9 9 10 10 10 11 13 16 16 16 16 16 16 16 15 15 15 15 15 16 16 15 15 15 15
14 14 13 13 13 13 12 11 9 7 7 7 7 7 8 8 8 8 9 9 9 10 12 15 16 16 16 16 16 16 16 15 15 16 16 16 15 15 14 15 15 15
14 14 13 13 13 13 13 13 11 8 7 8 8 8 8 8 9 9 9 9 9 10 14 16 16 16 16 16 16 16 15 15 16 16 16 16 15 14 14 14 14 14
14 14 14 14 13 13 13 13 13 11 9 8 8 8 8 9 9 9 9 10 9 11 14 16 16 16 16 16 16 16 16 16 16 16 16 16 15 14 14 14 15 14
14 14 14 13 13 13 13 13 13 13 11 9 8 8 9 10 10 10 10 10 9 11 14 15 15 16 16 16 16 16 16 16 15 15 16 16 15 15 15 14 15 15
14 14 14 13 13 13 13 13 13 13 13 11 9 9 9 10 11 11 10 10 10 11 14 15 15 16 16 16 16 16 16 16 15 15 15 15 15 15 15 15 15 16
14 14 13 14 13 13 13 13 13 13 14 13 12 11 9 10 11 11 11 12 12 13 13 14 15 16 16 16 15 15 15 15 15 15 15 15 16 15 15 16 16 16
14 14 14 14 14 14 13 13 13 13 13 14 14 13 12 10 10 11 13 15 15 14 14 14 15 16 15 15 15 15 15 15 15 15 15 16 16 15 15 15 16 16
15 14 14 14 14 14 14 13 13 13 13 14 14 14 13 11 11 13 15 16 16 15 15 15 16 16 15 15 15 15 15 15 15 15 16 16 16 15 15 16 16 16
15 15 15 14 14 14 14 14 13 13 13 14 14 15 14 12 12 15 17 17 16 16 16 15 16 16 16 15 15 15 15 15 15 15 15 16 16 16 16 16 16 17
15 15 15 15 14 14 14 14 13 13 13 14 15 15 15 15 14 16 17 17 17 16 16 16 16 16 16 16 15 16 16 16 16 15 16 16 16 16 16 16 16 17
15 15 15 15 15 14 14 14 14 14 14 14 14 15 15 16 16 16 16 16 16 16 16 16 16 16 16 16 16 16 16 16 16 16 16 16 16 16 17 16 16 16
15 15 15 15 15 14 14 14 14 15 15 15 14 15 15 16 16 16 16 16 16 16 16 16 16 16 16 16 16 16 16 16 16 16 16 17 17 17 16 16 16 16
15 15 16 16 15 14 15 15 15 15 16 15 15 15 15 16 16 16 16 16 16 16 16 16 16 16 16 16 16 16 16 16 16 17 17 16 16 16 16 15 14 13
Wind_Speed
20 19 17 15 15 13 12 11 10 11 11 11 10 9 8 8 9 10 10 10 10 10 10 11 11 10 10 10 9 10 10 10 10 11 11 11 11 11 10 10 10 10
19 19 18 18 17 15 13 12 12 12 12 12 11 10 9 8 9 10 11 11 11 11 11 11 11 11 10 10 9 9 10 10 10 10 11 12 12 12 11 11 11 12
18 19 20 20 19 18 15 14 14 13 13 13 12 11 10 9 10 10 11 12 12 12 12 11 11 10 10 9 9 9 10 10 10 11 12 12 12 12 12 12 12 11
19 20 21 21 20 19 18 16 15 15 14 14 13 12 11 10 11 11 11 12 13 13 12 12 11 10 10 9 9 10 11 11 11 11 12 12 12 13 13 12 12 11
20 20 21 21 21 20 19 18 17 16 15 14 13 13 12 12 12 12 12 13 13 13 13 12 12 12 12 11 11 12 12 12 12 12 13 13 13 14 14 13 12 12
21 22 21 21 21 20 20 19 18 17 16 15 14 14 13 13 13 13 14 13 13 13 13 13 13 13 14 13 14 14 13 13 13 13 13 14 14 14 14 14 13 12
22 23 22 22 21 20 20 19 18 18 17 16 15 15 15 14 14 14 14 14 14 14 14 14 14 14 15 15 16 16 15 14 14 14 14 15 15 16 15 14 13 12
22 23 23 23 22 22 21 20 19 18 17 17 16 16 16 16 15 14 14 14 14 14 14 14 14 14 15 16 17 16 16 15 15 15 15 16 16 17 16 14 14 13
23 23 24 24 23 23 23 21 20 19 18 18 18 17 17 17 16 16 15 15 15 15 15 14 14 14 14 15 16 16 17 17 17 17 17 17 17 18 18 16 15 14
24 24 24 24 24 24 23 23 22 20 19 18 18 18 18 18 18 17 17 17 17 17 17 16 16 15 14 15 15 16 17 17 18 18 18 18 18 18 18 16 14 13
23 23 24 24 24 23 23 22 22 22 20 19 19 19 19 19 19 18 18 18 18 18 18 17 16 15 14 14 14 14 15 16 17 17 17 17 16 16 16 15 14 15
23 23 23 23 23 23 23 22 22 22 22 20 19 20 20 20 20 20 19 20 20 19 19 18 16 15 14 13 13 13 14 15 16 16 15 14 13 15 17 16 16 16
25 24 23 22 22 22 22 23 23 23 23 22 21 20 20 21 21 21 20 20 21 20 19 18 16 15 15 16 15 14 14 14 14 14 14 12 14 17 17 17 17 16
27 26 24 23 22 21 22 23 24 25 24 23 23 22 21 21 22 21 20 20 21 21 19 18 16 16 17 18 15 13 13 13 12 12 12 13 16 17 16 16 16 16
28 28 27 25 24 23 22 22 23 25 26 25 24 24 23 23 23 22 21 21 21 20 19 18 17 17 17 16 13 12 13 13 12 11 12 14 16 16 15 14 14 15
31 30 29 28 27 25 23 22 21 22 25 26 26 25 24 24 23 22 22 22 21 21 20 19 18 17 16 14 13 13 13 13 13 13 13 14 15 14 14 14 15 15
33 32 31 29 28 27 26 24 22 21 22 24 25 25 25 24 23 23 23 23 22 21 21 21 20 18 17 16 16 15 13 14 14 13 13 13 14 14 14 14 15 15
32 33 32 31 28 28 27 26 25 23 21 21 23 25 25 24 24 23 23 23 23 23 22 22 22 19 18 17 17 15 13 14 15 14 13 13 13 13 13 13 14 14
32 32 32 32 30 28 28 27 27 26 23 21 22 23 25 25 25 23 22 23 23 23 23 24 23 20 18 18 17 14 13 13 14 13 13 13 13 13 12 13 14 14
33 32 32 32 31 30 28 28 28 27 25 23 22 22 25 26 25 23 23 22 22 22 23 23 22 20 19 19 16 13 12 13 13 14 14 13 14 14 14 14 16 16
34 34 34 32 32 31 30 30 29 28 27 26 24 23 25 26 26 24 23 22 22 21 22 22 22 20 19 18 17 14 13 14 15 15 15 15 16 16 16 17 17 18
31 34 35 34 33 33 32 31 30 29 28 27 25 24 24 26 27 26 25 23 22 21 22 22 22 20 18 18 18 17 17 17 17 17 18 18 19 18 18 18 18 18
29 31 33 34 34 34 33 32 31 30 29 28 27 25 24 25 27 27 25 24 22 21 22 22 22 21 19 19 19 20 19 19 19 20 20 21 21 20 20 19 19 19
30 30 32 34 35 35 34 33 32 30 29 29 29 28 26 25 26 27 26 25 23 22 22 23 22 21 21 21 21 21 21 21 21 21 22 23 22 21 20 19 18 19
29 30 30 32 35 35 34 33 32 31 29 29 30 30 28 27 26 27 27 25 23 23 24 24 23 22 22 22 22 23 23 22 22 22 22 22 21 19 19 18 16 14
29 29 29 31 33 34 33 32 32 31 31 31 31 31 31 29 27 26 26 25 24 24 25 24 24 23 22 22 22 22 21 20 20 20 21 20 18 17 17 12 6 8
Wind_Direction
226 229 232 236 239 239 238 238 237 238 240 240 241 240 237 239 239 239 242 245 246 248 250 250 251 252 254 254 254 255 257 258 258 259 262 266 272 273 270 273 279 282
229 232 235 238 238 237 237 237 236 237 238 238 239 238 236 238 238 237 239 241 242 244 245 245 247 248 249 251 251 254 257 258 260 263 267 269 272 272 270 272 276 280
232 235 236 237 237 236 238 239 237 235 235 235 234 233 235 237 236 235 236 238 239 242 243 244 246 246 246 246 247 251 255 257 261 265 267 269 270 271 272 275 276 279
233 234 236 236 235 236 239 241 239 237 235 235 234 234 235 236 234 234 236 238 240 240 242 245 247 244 240 242 246 251 255 258 260 261 265 267 269 270 272 274 275 277
236 235 234 235 235 235 238 239 239 239 239 239 238 237 237 237 236 237 240 242 243 242 242 245 248 244 239 243 250 255 259 263 265 266 268 271 271 271 272 272 275 279
237 236 234 234 236 237 239 239 240 241 242 244 243 241 240 239 240 242 243 245 245 244 244 245 248 247 244 248 254 258 262 265 270 273 274 275 276 274 272 270 272 275
236 235 234 234 235 237 240 241 242 243 243 244 244 244 243 241 243 245 247 247 245 243 244 246 250 250 250 253 256 259 262 266 271 276 277 278 277 274 270 267 267 270
236 236 235 234 235 237 239 242 244 244 244 244 244 245 245 244 245 247 249 249 246 245 246 248 251 252 253 255 258 261 264 268 272 276 278 278 275 273 270 266 265 266
238 237 235 235 236 237 239 242 245 247 246 244 245 247 248 248 249 250 252 251 249 249 250 251 253 256 258 260 264 267 270 273 274 275 276 276 273 272 269 264 263 265
240 237 236 236 236 238 240 241 244 248 248 246 246 248 250 252 253 253 254 252 251 251 252 255 258 261 266 271 275 277 278 280 279 277 275 273 272 272 268 261 261 267
239 237 237 236 235 236 239 241 243 246 248 247 247 248 250 254 255 255 255 255 255 256 257 258 260 263 272 280 282 283 285 284 282 279 275 273 272 270 266 261 262 266
240 237 237 237 237 236 237 240 242 244 246 247 248 248 250 253 255 255 256 258 260 262 262 259 258 264 273 279 282 286 288 286 282 278 276 274 269 264 264 266 267 269
242 238 237 239 241 241 239 240 241 243 245 246 248 250 250 252 255 256 258 261 264 266 263 258 258 266 274 279 283 286 287 286 282 277 275 272 268 266 268 270 269 272
244 243 242 242 245 246 245 243 242 242 244 245 248 250 252 253 255 257 260 262 264 263 258 255 259 269 277 284 287 285 281 281 281 279 276 269 267 268 270 270 268 271
247 247 246 245 247 248 248 246 244 243 244 245 247 249 251 254 255 258 260 262 263 259 253 253 259 266 273 281 284 279 273 272 272 272 270 268 268 269 270 269 267 267
249 249 249 248 248 247 248 248 247 246 245 245 247 248 250 253 255 256 257 259 260 256 251 251 257 262 265 267 271 272 272 271 269 267 269 273 274 273 273 271 269 266
251 250 249 249 249 248 247 247 248 249 248 246 246 247 249 251 253 254 254 255 255 253 251 252 255 258 258 261 269 273 274 273 271 269 274 279 278 276 276 274 271 267
252 251 250 249 249 248 247 246 247 248 250 248 246 245 247 249 251 252 252 251 250 248 248 250 252 253 256 265 275 279 274 269 268 270 275 277 275 277 279 279 275 270
249 249 250 250 250 249 247 247 247 246 248 249 247 246 245 246 248 249 248 246 245 243 244 246 249 252 259 268 274 274 268 264 265 270 272 272 275 278 279 279 276 271
247 247 248 249 250 249 247 246 246 245 246 247 248 247 245 244 245 242 239 239 240 239 239 241 245 253 263 267 266 263 260 258 260 265 267 268 272 274 272 272 272 270
244 245 246 247 248 248 247 245 244 244 244 244 247 248 245 243 240 235 232 234 237 238 237 239 245 252 260 263 262 261 258 255 258 262 263 264 266 267 268 270 272 273
242 243 244 245 246 247 248 246 243 243 242 240 242 244 243 239 233 228 229 233 237 238 238 240 247 254 258 259 259 260 262 261 262 261 261 264 266 268 270 271 274 277
240 241 242 243 244 245 247 245 242 241 241 239 238 238 236 234 230 227 230 236 239 240 241 244 250 254 257 258 258 260 262 263 263 262 264 267 269 270 271 271 273 277
240 238 238 239 241 243 245 245 243 243 243 241 238 233 229 230 233 233 235 239 241 242 242 245 250 253 257 258 259 261 263 264 264 264 265 267 269 271 273 274 274 272
240 238 236 236 239 241 244 245 245 243 242 240 237 232 225 225 230 236 240 242 243 243 244 246 250 253 255 256 257 262 266 267 266 265 266 268 271 275 278 280 276 263
240 238 236 235 236 239 242 245 244 243 241 238 235 231 227 225 228 237 244 244 243 244 246 250 252 251 250 253 258 263 266 266 268 270 271 273 276 278 278 272 238 172
Height
1567 1568 1569 1570 1572 1573 1574 1575 1576 1577 1578 1578 1579 1580 1580 1581 1582 1582 1583 1583 1584 1584 1585 1585 1586 1586 1587 1587 1587 1588 1588 1588 1588 1588 1588 1588 1588 1588 1588 1588 1588 1588
1565 1566 1568 1569 1570 1571 1572 1574 1574 1575 1576 1577 1578 1579 1579 1580 1580 1581 1581 1582 1583 1583 1584 1584 1585 1585 1586 1586 1586 1587 1587 1587 1587 1588 1588 1587 1587 1587 1587 1587 1587 1586
1563 1564 1566 1567 1569 1570 1571 1572 1573 1574 1575 1576 1577 1578 1578 1579 1579 1580 1580 1581 1581 1582 1583 1583 1584 1584 1585 1585 1585 1585 1586 1586 1586 1586 1586 1586 1586 1586 1586 1586 1585 1585
1561 1563 1564 1566 1567 1569 1570 1571 1572 1573 1574 1574 1575 1576 1577 1578 1578 1579 1579 1580 1580 1581 1582 1582 1583 1583 1584 1584 1584 1584 1584 1585 1585 1585 1585 1585 1585 1585 1584 1584 1584 1584
1559 1561 1562 1564 1565 1567 1568 1569 1570 1571 1572 1573 1574 1575 1576 1576 1577 1578 1578 1579 1579 1580 1581 1581 1582 1582 1582 1583 1583 1583 1583 1583 1583 1583 1583 1583 1583 1583 1583 1583 1582 1582
1557 1559 1560 1562 1564 1565 1566 1567 1569 1570 1571 1572 1573 1573 1574 1575 1576 1576 1577 1578 1578 1579 1579 1580 1580 1581 1581 1581 1581 1581 1582 1582 1582 1582 1582 1582 1582 1582 1582 1581 1581 1581
1555 1557 1558 1560 1562 1563 1564 1565 1567 1568 1569 1570 1571 1572 1573 1573 1574 1575 1575 1576 1577 1577 1578 1578 1579 1579 1579 1580 1580 1580 1580 1580 1580 1580 1580 1580 1580 1580 1580 1580 1579 1579
1553 1555 1556 1558 1559 1561 1562 1563 1564 1565 1567 1568 1569 1570 1571 1571 1572 1573 1574 1574 1575 1576 1576 1577 1577 1577 1578 1578 1578 1578 1579 1579 1578 1578 1578 1578 1578 1578 1578 1578 1578 1577
1551 1553 1554 1556 1557 1558 1560 1561 1562 1563 1564 1566 1567 1568 1569 1570 1570 1571 1572 1573 1573 1574 1574 1575 1575 1575 1576 1576 1576 1577 1577 1577 1576 1576 1576 1576 1576 1576 1576 1576 1577 1576
1549 1550 1552 1553 1554 1556 1557 1559 1560 1561 1562 1563 1565 1566 1567 1568 1568 1569 1570 1571 1571 1572 1572 1573 1573 1574 1574 1574 1575 1575 1575 1575 1574 1574 1574 1574 1574 1574 1575 1575 1576 1576
1546 1548 1549 1550 1551 1553 1554 1556 1558 1559 1560 1561 1562 1564 1565 1566 1566 1567 1568 1568 1569 1570 1570 1571 1571 1572 1572 1572 1572 1572 1573 1573 1572 1572 1572 1572 1573 1573 1573 1573 1574 1574
1544 1545 1546 1547 1549 1550 1552 1553 1555 1556 1557 1559 1560 1561 1562 1563 1564 1565 1565 1566 1567 1567 1568 1569 1569 1570 1570 1570 1570 1571 1571 1571 1571 1571 1571 1571 1571 1570 1570 1571 1572 1572
1541 1542 1544 1545 1546 1548 1549 1551 1552 1553 1554 1556 1557 1558 1560 1561 1561 1562 1563 1564 1564 1565 1566 1566 1567 1568 1568 1569 1569 1570 1569 1569 1569 1569 1569 1570 1569 1568 1569 1570 1570 1570
1538 1539 1541 1542 1544 1545 1547 1548 1549 1550 1552 1553 1555 1556 1557 1558 1559 1560 1561 1561 1562 1563 1563 1564 1565 1566 1566 1567 1569 1568 1568 1567 1568 1568 1568 1568 1567 1566 1567 1567 1566 1566
1535 1536 1538 1539 1541 1542 1544 1545 1546 1548 1549 1550 1551 1553 1554 1555 1556 1557 1558 1558 1559 1560 1561 1562 1563 1563 1564 1565 1566 1565 1565 1565 1566 1566 1566 1566 1565 1564 1564 1564 1564 1564
1531 1533 1534 1536 1537 1539 1541 1542 1544 1545 1546 1547 1548 1550 1551 1552 1553 1554 1555 1556 1556 1557 1559 1559 1560 1560 1561 1562 1563 1562 1562 1563 1564 1564 1564 1564 1564 1563 1563 1562 1562 1562
1528 1529 1531 1532 1534 1536 1537 1539 1541 1542 1543 1544 1545 1547 1548 1549 1550 1551 1552 1553 1553 1554 1556 1556 1557 1557 1558 1559 1559 1560 1561 1562 1562 1562 1562 1562 1562 1562 1561 1561 1561 1561
1524 1525 1527 1528 1530 1532 1534 1535 1537 1539 1540 1541 1542 1543 1544 1545 1546 1547 1548 1550 1551 1551 1553 1553 1553 1554 1555 1556 1557 1558 1559 1560 1560 1559 1559 1560 1561 1560 1560 1559 1559 1560
1520 1521 1523 1524 1526 1528 1530 1532 1534 1535 1536 1538 1539 1540 1541 1542 1543 1544 1545 1547 1547 1548 1549 1550 1550 1551 1552 1553 1555 1556 1556 1557 1557 1557 1557 1558 1558 1558 1557 1557 1557 1557
1516 1517 1519 1521 1523 1525 1526 1528 1530 1531 1533 1535 1536 1537 1538 1538 1540 1541 1542 1544 1545 1545 1546 1547 1548 1549 1550 1551 1552 1554 1554 1555 1555 1555 1555 1555 1555 1555 1555 1554 1554 1554
1511 1513 1515 1517 1518 1520 1522 1524 1526 1527 1529 1531 1532 1533 1534 1535 1537 1538 1539 1540 1542 1543 1544 1545 1546 1547 1548 1548 1549 1551 1552 1552 1552 1552 1552 1552 1552 1552 1552 1552 1552 1552
1507 1509 1511 1513 1514 1516 1518 1520 1522 1524 1525 1527 1528 1529 1531 1532 1533 1534 1536 1537 1539 1540 1541 1543 1544 1545 1546 1547 1547 1548 1548 1549 1549 1549 1549 1549 1549 1548 1548 1549 1549 1550
1503 1504 1507 1509 1511 1512 1514 1516 1518 1520 1522 1523 1525 1526 1527 1528 1530 1531 1533 1535 1537 1538 1539 1540 1541 1542 1543 1545 1545 1546 1546 1546 1546 1546 1546 1545 1545 1545 1545 1546 1547 1548
1499 1500 1502 1504 1506 1508 1510 1512 1514 1516 1518 1520 1521 1522 1523 1525 1527 1529 1530 1532 1534 1535 1536 1537 1538 1539 1540 1542 1542 1543 1543 1544 1544 1544 1543 1543 1543 1542 1542 1543 1545 1546
1495 1496 1498 1500 1501 1504 1506 1508 1510 1513 1514 1516 1517 1519 1520 1522 1524 1526 1528 1530 1532 1532 1533 1534 1535 1536 1537 1539 1540 1540 1541 1541 1541 1541 1541 1541 1541 1540 1540 1541 1542 1543
1490 1492 1494 1495 1497 1499 1502 1505 1507 1509 1511 1512 1514 1516 1517 1519 1521 1523 1525 1527 1528 1529 1529 1531 1532 1533 1534 1536 1537 1537 1538 1538 1538 1539 1539 1539 1539 1539 1539 1540 1541 1543